loading
|

STARLINK-31997, 60288

Orbit data source: Space-Track

STARLINK-31997, 60288 is a payload satellite owned by SpaceX/Seattle (US) in LEO that was launched on Sun, 28 Jul 2024 UTC via an FALCON 9 launch vehicle from the Air Force Eastern Test Range (AFETR). Payloads include a variety of satellites, spacecraft, and rockets equipped with specific instruments for various scientific and technological missions. These include communications satellites like Starlink; space stations such as the ISS; scientific satellites like the Hubble; Earth observation satellites from companies like Planet Labs, Umbra, and HawkEye 360; GPS; miniature CubeSats for education and research; and military/defense satellites.

Loading next visibility...
Loading greatness...
STARLINK-31997 details
Identifier
60288, 2024-132L
Orbit
LEO
Last TLE update8 hours ago
Origin
Flag of USSpaceX/Seattle (US)
ManufacturerSpaceX/Seattle
Mission statusOperational
MissionUnknown
Bus & MotorSTARLINK V2M, Unknown motor
Mass750 kg wet, ~700 kg dry
Launch date (UTC)
2024-07-28 (2 months ago)
Launch vehicle
FALCON 9
Launch site
Air Force Eastern Test Range (AFETR)
Object type
Payload
Rocket body
Debris
Radar Cross SectionLarge (>1 m²)

Expand to show TLE details & history

TLE from 8 hours ago
0 STARLINK-31997
1 60288U 24132L   24261.59802463  .00002667  00000-0  76617-4 0  9990
2 60288  53.1606  31.9944 0001291  82.8430 277.2721 15.39627885  9174
Epoch: 2024-09-17T14:21Z
Definitive object data (Epoch: 2024-09-17T14:21:09.328Z)
Latitude-0.00005°
Longitude179.69511°
Altitude448.001 km
Speed7.645 km/s
True Right ascension02h 07m 58s
True Declination0° 00' 00"
Sunlit
Object was in full shadow at TLE epoch
Predictive object data (real-time)
Latitude46.28803°
Longitude-130.69405°
Altitude451.344 km
Speed7.648 km/s
Apparent Right ascension04h 19m 02s
Apparent Declination5° 13' 08"
Sunlit
Object is in daylight
Predictive observer data (real-time)
Local Sidereal Time15:14:05
Azimuth337.828° N
Elevation-42.452°
Doppler factor1
Orbital elements
Apogee448.347 km
Perigee446.585 km
Semi-major axis6,825.603 km
Eccentricity0.0001291
Inclination53.1606°
RAAN31.9944°
Arg. of periapsis82.843°
True anomaly277.25742°
Mean anomaly277.2721°
Eccentric anomaly277.26476°
Mean motion3.84886 °/min
BSTAR0.000076617
Period93.53 mins
No data available

STARLINK-31997 Visibility forecast

Observer location: 39.9160978°, -105.1181434

STARLINK-31997 is not visible in the next 10 days
Span
Click to sort rows by Start time (UTC) header in descending order
Start Az.
Max El. time (UTC)
Max El. Az.
Max El.
End time (UTC)
End Az.